1513476001.15,48208,6.75,72388.3,-16.07,-46.49,-46.35,0,*6D
1513476002.39,48209,6.75,72384.0,-16.07,-46.75,-46.61,0,*62
1513476003.61,48210,6.75,72388.3,-16.07,-46.75,-46.55,0,*6D
1513476004.83,48211,6.75,72388.3,-16.07,-46.83,-46.75,0,*67
1513476006.07,48212,6.75,72386.5,-16.07,-46.97,-46.61,0,*64
1513476007.3,48213,6.69,72384.8,-16.07,-46.83,-46.75,0,*65
1513476008.55,48214,6.69,72384.0,-16.07,-47.03,-46.83,0,*62
1513476009.79,48215,6.75,72386.3,-16.09,-46.97,-46.75,0,*68
1513476011.07,48216,6.75,72388.0,-16.09,-46.83,-46.49,0,*61
1513476012.32,48217,6.69,72384.5,-16.09,-46.97,-46.75,0,*6A
1513476013.56,48218,6.75,72390.3,-16.07,-46.55,-46.49,0,*6A
1513476014.86,48219,6.75,72390.8,-16.09,-46.61,-46.49,0,*62
1513476016.13,48220,6.69,72386.0,-16.09,-46.61,-46.35,0,*63
1513476017.37,48221,6.69,72384.5,-16.07,-46.55,-46.27,0,*68
1513476018.62,48222,6.69,72384.8,-16.07,-46.55,-46.27,0,*6B
1513476019.89,48223,6.75,72388.3,-16.07,-46.49,-46.27,0,*67
1513476021.11,48224,6.75,72388.3,-16.07,-46.55,-46.55,0,*68
1513476022.38,48225,6.69,72386.3,-16.09,-46.83,-46.61,0,*6B
1513476023.6,48226,6.75,72390.5,-16.07,-46.83,-46.75,0,*63
1513476024.82,48227,6.69,72386.0,-16.07,-46.83,-46.75,0,*62
1513476026.08,48228,6.75,72390.8,-16.09,-46.97,-46.83,0,*6F
1513476027.33,48229,6.75,72390.8,-16.09,-46.97,-46.83,0,*6E
1513476028.58,48230,6.75,72390.5,-16.09,-46.97,-46.83,0,*66
1513476029.82,48231,6.75,72388.3,-16.09,-46.75,-46.55,0,*60
1513476031.04,48232,6.75,72386.3,-16.07,-46.55,-46.35,0,*69
1513476032.28,48233,6.69,72386.3,-16.09,-46.55,-46.35,0,*66
1513476033.52,48234,6.75,72390.5,-16.09,-46.75,-46.55,0,*65
1513476034.82,48235,6.69,72386.0,-16.09,-46.61,-46.27,0,*64
1513476036.09,48236,6.69,72386.5,-16.09,-46.55,-46.49,0,*68
1513476037.36,48237,6.69,72384.3,-16.09,-46.55,-46.49,0,*69
1513476038.6,48238,6.69,72384.5,-16.09,-46.75,-46.35,0,*6F
1513476039.87,48239,6.75,72390.0,-16.09,-46.83,-46.49,0,*6C
1513476041.12,48240,6.75,72388.0,-16.07,-46.83,-46.61,0,*66
1513476042.38,48241,6.75,72388.5,-16.09,-46.61,-46.55,0,*62
1513476043.66,48242,6.75,72390.3,-16.09,-46.55,-46.49,0,*6B
1513476044.92,48243,6.69,72384.8,-16.09,-46.61,-46.35,0,*66
1513476046.17,48244,6.75,72386.8,-16.09,-46.35,-46.35,0,*60
1513476047.47,48245,6.69,72384.8,-16.09,-46.49,-46.27,0,*69
1513476048.74,48246,6.75,72388.5,-16.09,-46.35,-46.27,0,*61
1513476049.96,48247,6.69,72384.5,-16.07,-46.75,-46.55,0,*6F
1513476051.2,48248,6.69,72384.5,-16.11,-46.61,-46.55,0,*62
1513476052.46,48249,6.69,72386.3,-16.09,-46.61,-46.55,0,*6A
1513476053.71,48250,6.69,72386.3,-16.09,-46.75,-46.35,0,*61
1513476054.97,48251,6.69,72386.0,-16.09,-46.75,-46.61,0,*61
1513476056.26,48252,6.75,72392.5,-16.09,-46.61,-46.49,0,*6D
1513476057.51,48253,6.75,72388.3,-16.07,-46.83,-46.61,0,*64
1513476058.77,48254,6.69,72386.0,-16.09,-46.61,-46.55,0,*66
1513476060.02,48255,6.75,72390.3,-16.09,-46.55,-46.35,0,*66
1513476061.28,48256,6.69,72386.3,-16.09,-46.61,-46.55,0,*64
1513476062.55,48257,6.69,72384.8,-16.09,-46.61,-46.55,0,*65
1513476063.77,48258,6.69,72384.0,-16.07,-46.83,-46.75,0,*6A
1513476065.02,48259,6.69,72386.5,-16.09,-46.83,-46.55,0,*67
1513476066.29,48260,6.75,72386.8,-16.09,-46.83,-46.49,0,*60
1513476067.56,48261,6.69,72384.8,-16.09,-46.75,-46.49,0,*68
1513476068.81,48262,6.69,72386.0,-16.09,-46.83,-46.55,0,*6F
1513476070.08,48263,6.69,72388.0,-16.09,-46.61,-46.35,0,*64
1513476071.32,48264,6.69,72388.5,-16.07,-46.61,-46.35,0,*6D
1513476072.62,48265,6.69,72386.0,-16.09,-46.49,-46.27,0,*6B
1513476073.89,48266,6.69,72386.5,-16.09,-46.75,-46.27,0,*67
1513476075.13,48267,6.69,72386.0,-16.09,-46.75,-46.35,0,*65
1513476076.39,48268,6.69,72388.5,-16.09,-46.61,-46.35,0,*6F
1513476077.69,48269,6.75,72390.0,-16.09,-46.61,-46.27,0,*6D
1513476078.96,48270,6.69,72388.5,-16.09,-46.27,-45.95,0,*6D
1513476080.24,48271,6.69,72388.3,-16.07,-46.27,-46.15,0,*69
1513476081.5,48272,6.69,72384.3,-16.09,-46.61,-46.35,0,*64
1513476082.8,48273,6.75,72390.8,-16.09,-46.27,-46.15,0,*65
1513476084.05,48274,6.69,72388.0,-16.07,-46.55,-46.27,0,*68
1513476085.33,48275,6.69,72384.3,-16.07,-46.49,-46.15,0,*65
1513476086.59,48276,6.69,72386.5,-16.09,-46.61,-46.35,0,*60
1513476087.86,48277,6.75,72392.0,-16.07,-46.61,-46.49,0,*64
1513476089.11,48278,6.69,72390.5,-16.07,-46.75,-46.27,0,*66
1513476090.38,48279,6.75,72388.3,-16.09,-46.15,-45.95,0,*65
1513476091.65,48280,6.69,72386.8,-16.07,-46.27,-46.07,0,*64
1513476092.95,48281,6.75,72386.3,-16.09,-46.49,-46.15,0,*60
1513476094.2,48282,6.69,72386.8,-16.07,-46.07,-45.87,0,*6F
1513476095.44,48283,6.69,72388.0,-16.07,-46.15,-45.95,0,*6E
1513476096.7,48284,6.69,72386.8,-16.07,-46.35,-46.15,0,*60
1513476098.0,48285,6.75,72384.0,-16.09,-46.15,-46.07,0,*6E
1513476099.3,48286,6.69,72384.0,-16.09,-46.49,-46.15,0,*67
1513476100.55,48287,6.69,72382.3,-16.07,-46.35,-46.07,0,*60
1513476101.79,48288,6.75,72386.5,-16.07,-46.49,-46.35,0,*65
1513476103.09,48289,6.75,72388.5,-16.09,-46.49,-46.27,0,*69
1513476104.34,48290,6.69,72384.8,-16.07,-46.55,-46.27,0,*62
1513476105.6,48291,6.69,72382.5,-16.05,-46.41,-46.01,0,*60
1513476106.9,48292,6.69,72386.8,-16.05,-46.27,-46.07,0,*65
1513476108.17,48293,6.75,72388.3,-16.07,-46.49,-46.27,0,*6C
1513476109.47,48294,6.75,72388.3,-16.05,-46.27,-46.07,0,*63
1513476110.76,48295,6.69,72388.0,-16.05,-46.41,-46.27,0,*60
1513476112.02,48296,6.69,72386.3,-16.05,-46.49,-46.21,0,*6D
1513476113.28,48297,6.69,72386.3,-16.05,-46.41,-46.21,0,*64
1513476114.57,48298,6.69,72386.3,-16.05,-46.41,-46.07,0,*6F
1513476115.86,48299,6.75,72390.5,-16.01,-46.41,-46.27,0,*68
1513476117.15,48300,6.69,72386.5,-16.05,-46.41,-46.07,0,*6F
1513476118.4,48301,6.69,72384.5,-16.07,-46.55,-46.27,0,*6B
1513476119.67,48302,6.75,72390.0,-16.07,-46.27,-46.27,0,*6D
1513476120.96,48303,6.69,72384.3,-16.05,-46.41,-46.07,0,*6C
1513476122.23,48304,6.69,72384.8,-16.05,-46.21,-46.07,0,*6D
1513476123.52,48305,6.69,72388.0,-16.05,-46.27,-46.07,0,*6A
1513476124.81,48306,6.69,72384.3,-16.05,-46.69,-46.41,0,*61
1513476126.03,48307,6.69,72384.0,-16.07,-46.55,-46.35,0,*6E
1513476127.29,48308,6.69,72386.3,-16.05,-46.41,-46.21,0,*63
1513476128.55,48309,6.69,72384.0,-16.05,-46.41,-46.21,0,*62
1513476129.81,48310,6.69,72384.8,-16.05,-46.69,-46.21,0,*60
1513476131.08,48311,6.69,72388.0,-16.05,-46.49,-46.21,0,*63
1513476132.35,48312,6.69,72386.0,-16.05,-46.07,-46.01,0,*68
1513476133.63,48313,6.69,72384.3,-16.05,-46.27,-46.01,0,*6B
1513476134.9,48314,6.69,72380.8,-16.01,-46.07,-45.87,0,*67
1513476136.17,48315,6.69,72384.8,-16.05,-46.07,-46.01,0,*6F
1513476137.47,48316,6.69,72384.8,-16.01,-46.27,-46.07,0,*6C
1513476138.76,48317,6.69,72384.3,-16.01,-46.49,-46.27,0,*67
1513476140.03,48318,6.69,72384.8,-16.01,-46.41,-46.21,0,*66
1513476141.32,48319,6.69,72386.3,-16.05,-46.41,-46.07,0,*67
1513476142.61,48320,6.69,72384.5,-16.05,-46.49,-46.07,0,*65
1513476143.9,48321,6.69,72384.8,-16.01,-46.41,-46.07,0,*68
1513476145.2,48322,6.69,72388.3,-16.05,-46.49,-46.27,0,*65
1513476146.49,48323,6.69,72386.5,-16.05,-46.69,-46.49,0,*6E
1513476147.79,48324,6.75,72388.5,-16.01,-46.89,-46.49,0,*63
1513476149.09,48325,6.69,72386.5,-16.01,-46.89,-46.69,0,*60
1513476150.32,48326,6.69,72384.3,-16.05,-46.75,-46.55,0,*6B
1513476151.59,48327,6.75,72388.5,-16.05,-46.89,-46.55,0,*69
1513476152.84,48328,6.69,72386.5,-16.07,-46.75,-46.49,0,*6A
1513476154.09,48329,6.69,72384.5,-16.07,-46.55,-46.15,0,*60
1513476155.36,48330,6.69,72386.3,-16.07,-46.49,-46.27,0,*64
1513476156.58,48331,6.69,72384.8,-16.07,-46.75,-46.35,0,*69
1513476157.84,48332,6.69,72384.8,-16.05,-46.55,-46.27,0,*69
1513476159.14,48333,6.69,72386.5,-16.05,-46.27,-46.27,0,*6D
1513476160.43,48334,6.69,72386.5,-16.05,-46.41,-46.07,0,*68
1513476161.69,48335,6.69,72384.3,-16.05,-46.41,-46.21,0,*6D
1513476162.95,48336,6.75,72390.5,-16.05,-46.41,-46.21,0,*6E
1513476164.24,48337,6.75,72390.3,-16.05,-46.69,-46.41,0,*63
1513476165.5,48338,6.69,72386.3,-16.05,-46.55,-46.27,0,*63
1513476166.73,48339,6.69,72386.3,-16.07,-46.83,-46.55,0,*6E
1513476167.97,48340,6.69,72386.3,-16.07,-46.83,-46.61,0,*67
1513476169.19,48341,6.69,72386.8,-16.07,-46.83,-46.55,0,*61
1513476170.46,48342,6.69,72386.3,-16.07,-46.61,-46.49,0,*63
1513476171.73,48343,6.75,72388.0,-16.09,-46.55,-46.27,0,*63
1513476173.03,48344,6.69,72386.0,-16.09,-46.49,-46.27,0,*69
1513476174.27,48345,6.69,72386.0,-16.09,-46.75,-46.35,0,*64
1513476175.57,48346,6.69,72384.8,-16.09,-46.61,-46.49,0,*69
1513476176.78,48347,6.69,72386.5,-16.07,-46.75,-46.35,0,*68
1513476178.03,48348,6.69,72386.8,-16.07,-46.35,-46.27,0,*60
1513476179.3,48349,6.69,72386.5,-16.09,-46.07,-45.87,0,*67
1513476180.57,48350,6.69,72386.5,-16.09,-46.07,-45.87,0,*6F
1513476181.84,48351,6.69,72390.3,-16.07,-46.27,-46.07,0,*69
1513476183.06,48352,6.69,72388.3,-16.07,-45.95,-45.87,0,*6B
1513476184.28,48353,6.69,72390.8,-16.07,-45.67,-45.53,0,*6E
1513476185.53,48354,6.69,72386.5,-16.07,-46.35,-46.07,0,*6F
1513476186.79,48355,6.69,72386.8,-16.05,-46.21,-46.07,0,*69
1513476188.06,48356,6.69,72384.0,-16.05,-46.21,-46.07,0,*6A
1513476189.35,48357,6.69,72386.8,-16.05,-46.41,-46.07,0,*6D
1513476190.63,48358,6.69,72390.0,-16.01,-46.27,-46.01,0,*60
1513476191.86,48359,6.69,72388.0,-16.05,-46.01,-45.67,0,*62
1513476193.13,48360,6.69,72390.5,-16.05,-46.07,-45.87,0,*60
1513476194.4,48361,6.69,72386.5,-16.05,-46.49,-46.21,0,*64
1513476195.63,48362,6.69,72390.3,-16.05,-46.01,-45.67,0,*6A
1513476196.88,48363,6.69,72388.5,-16.05,-46.21,-46.01,0,*6A
1513476198.17,48364,6.69,72388.5,-16.05,-46.49,-46.07,0,*65
1513476199.44,48365,6.69,72390.0,-16.01,-46.01,-45.81,0,*61
1513476200.68,48366,6.69,72386.3,-16.01,-46.01,-45.67,0,*6A
1513476201.96,48367,6.69,72390.3,-16.01,-46.07,-46.01,0,*6E
1513476203.22,48368,6.75,72392.0,-16.05,-45.87,-45.81,0,*65
1513476204.46,48369,6.69,72388.5,-16.05,-46.01,-45.87,0,*6F
1513476205.7,48370,6.69,72384.8,-16.05,-46.21,-46.01,0,*68
1513476206.97,48371,6.69,72388.8,-16.01,-46.41,-46.21,0,*69
1513476208.26,48372,6.69,72386.5,-16.05,-46.27,-46.07,0,*6A
1513476209.53,48373,6.69,72390.0,-16.01,-46.07,-45.87,0,*66
1513476210.8,48374,6.69,72390.8,-16.01,-46.21,-46.07,0,*6E
1513476212.1,48375,6.69,72386.3,-16.01,-46.27,-46.07,0,*69
1513476213.37,48376,6.69,72388.0,-16.01,-46.21,-46.07,0,*6C
1513476214.62,48377,6.69,72388.3,-16.01,-46.21,-46.01,0,*6B
1513476215.86,48378,6.69,72388.3,-16.05,-46.21,-46.01,0,*60
1513476217.11,48379,6.75,72392.0,-16.01,-46.01,-45.87,0,*6A
1513476218.37,48380,6.69,72388.5,-16.01,-46.07,-45.87,0,*6A
1513476219.64,48381,6.69,72388.3,-16.01,-46.07,-45.87,0,*6B
1513476220.86,48382,6.75,72390.3,-15.99,-46.01,-45.95,0,*6F
1513476222.09,48383,6.69,72388.3,-15.99,-46.35,-46.01,0,*67
1513476223.36,48384,6.69,72388.8,-15.99,-46.41,-46.15,0,*66
1513476224.6,48385,6.69,72388.0,-15.99,-46.61,-46.35,0,*67
1513476225.85,48386,6.69,72388.8,-15.99,-46.35,-46.15,0,*67
1513476227.15,48387,6.69,72390.8,-16.01,-46.27,-46.07,0,*64
1513476228.42,48388,6.69,72386.8,-16.01,-46.55,-46.27,0,*6C
1513476229.72,48389,6.69,72384.8,-16.01,-46.27,-46.07,0,*6A
1513476230.99,48390,6.69,72390.3,-16.01,-46.41,-46.21,0,*66
1513476232.28,48391,6.69,72388.0,-16.05,-46.27,-46.07,0,*67
1513476233.53,48392,6.69,72388.8,-15.99,-46.49,-46.35,0,*6B
1513476234.8,48393,6.69,72390.3,-15.97,-46.49,-46.21,0,*61
1513476236.06,48394,6.69,72390.3,-16.05,-46.41,-46.21,0,*66
1513476237.35,48395,6.69,72388.8,-16.01,-46.41,-46.07,0,*67
1513476238.62,48396,6.69,72388.3,-16.01,-46.49,-46.21,0,*68
1513476239.92,48397,6.69,72386.8,-16.01,-46.49,-46.27,0,*6F
1513476241.19,48398,6.69,72390.3,-16.01,-46.55,-46.27,0,*6D
1513476242.48,48399,6.69,72390.5,-16.05,-46.41,-46.27,0,*6D
1513476243.74,48400,6.69,72388.3,-16.05,-46.41,-46.21,0,*6C
1513476245.03,48401,6.69,72388.3,-16.05,-46.49,-46.27,0,*63
1513476246.33,48402,6.75,72392.5,-16.01,-46.49,-46.49,0,*6C
1513476247.62,48403,6.69,72384.8,-16.05,-46.69,-46.41,0,*63
1513476248.88,48404,6.69,72390.8,-16.01,-46.55,-46.41,0,*6F
1513476250.15,48405,6.75,72392.0,-16.01,-46.69,-46.55,0,*64
1513476251.44,48406,6.69,72388.3,-16.05,-46.49,-46.27,0,*64
1513476252.68,48407,6.69,72390.8,-16.05,-45.87,-45.87,0,*6D
1513476253.97,48408,6.69,72392.0,-16.05,-46.41,-46.07,0,*60
1513476255.24,48409,6.69,72388.0,-16.01,-46.27,-46.21,0,*61
1513476256.48,48410,6.69,72388.0,-16.05,-46.21,-46.01,0,*69
1513476257.78,48411,6.69,72388.5,-16.01,-46.07,-46.07,0,*6E
1513476259.08,48412,6.69,72388.5,-16.01,-46.27,-46.27,0,*6D
1513476260.37,48413,6.69,72392.0,-16.05,-46.49,-46.27,0,*60
1513476261.62,48414,6.69,72390.5,-16.01,-46.21,-46.01,0,*69
1513476262.91,48415,6.69,72390.3,-16.05,-46.07,-46.07,0,*6E
1513476264.21,48416,6.69,72388.8,-16.01,-46.07,-46.07,0,*69
1513476265.5,48417,6.69,72388.3,-16.05,-46.07,-46.07,0,*6C
1513476266.74,48418,6.69,72390.0,-16.05,-45.87,-45.87,0,*63
1513476268.01,48419,6.69,72388.8,-16.01,-46.21,-46.07,0,*62
1513476269.28,48420,6.69,72390.8,-16.05,-46.27,-46.01,0,*6C
1513476270.53,48421,6.69,72390.5,-16.05,-46.21,-46.01,0,*6B
1513476271.82,48422,6.69,72390.3,-16.01,-46.27,-46.27,0,*6E
1513476273.06,48423,6.69,72390.8,-16.05,-46.21,-46.21,0,*6B
1513476274.31,48424,6.69,72390.5,-16.05,-46.21,-46.01,0,*6E
1513476275.58,48425,6.69,72392.3,-16.01,-46.21,-46.07,0,*6D
1513476276.87,48426,6.69,72388.5,-16.01,-46.49,-46.27,0,*62
1513476278.17,48427,6.69,72388.8,-16.01,-46.27,-46.07,0,*69
1513476279.44,48428,6.69,72390.5,-16.01,-46.21,-46.07,0,*60
1513476280.71,48429,6.69,72390.0,-16.01,-46.41,-46.21,0,*63
1513476281.97,48430,6.69,72390.8,-16.05,-46.55,-46.41,0,*6C
1513476283.26,48431,6.69,72390.3,-16.01,-46.41,-46.41,0,*6C
1513476284.55,48432,6.69,72390.8,-16.05,-46.69,-46.41,0,*61
1513476285.81,48433,6.69,72388.3,-16.05,-46.41,-46.21,0,*6C
1513476287.07,48434,6.69,72392.3,-16.05,-46.01,-45.81,0,*66
1513476288.34,48435,6.69,72388.8,-16.05,-46.07,-46.01,0,*6A
1513476289.59,48436,6.69,72390.5,-16.05,-46.55,-46.21,0,*6C
1513476290.86,48437,6.69,72384.0,-16.05,-46.07,-46.01,0,*68
1513476292.1,48438,6.69,72390.3,-15.99,-46.15,-45.95,0,*6C
1513476293.4,48439,6.69,72388.3,-16.01,-46.27,-46.07,0,*66
1513476294.66,48440,6.69,72390.5,-16.05,-46.41,-46.21,0,*68
1513476295.9,48441,6.69,72388.0,-16.05,-45.67,-45.61,0,*69
1513476297.16,48442,6.69,72390.5,-16.05,-46.07,-45.87,0,*67
1513476298.43,48443,6.69,72390.5,-16.05,-46.21,-46.07,0,*69
1513476299.73,48444,6.69,72388.3,-16.01,-46.27,-46.07,0,*6C
1513476301.0,48445,6.69,72388.8,-16.05,-46.07,-46.01,0,*6D
1513476302.3,48446,6.69,72390.5,-16.05,-46.07,-46.07,0,*68
1513476303.57,48447,6.69,72390.8,-16.01,-46.21,-46.07,0,*69
1513476304.87,48448,6.75,72392.5,-16.01,-46.27,-46.27,0,*62
1513476306.13,48449,6.69,72388.0,-16.05,-46.41,-46.21,0,*61
1513476307.41,48450,6.69,72386.5,-16.05,-46.41,-46.49,0,*67
1513476308.7,48451,6.69,72392.8,-16.01,-46.41,-46.27,0,*6A
1513476310.0,48452,6.69,72386.3,-16.05,-46.49,-46.27,0,*65
1513476311.29,48453,6.69,72388.5,-16.05,-46.49,-46.41,0,*64
1513476312.56,48454,6.69,72390.5,-16.05,-46.55,-46.49,0,*66
1513476313.82,48455,6.69,72388.3,-16.05,-46.55,-46.41,0,*6F
1513476315.08,48456,6.69,72388.0,-16.05,-46.55,-46.41,0,*6C
1513476316.37,48457,6.69,72390.0,-16.05,-46.41,-46.27,0,*68
1513476317.64,48458,6.69,72392.0,-16.05,-46.69,-46.55,0,*68
1513476318.9,48459,6.69,72392.5,-16.05,-46.55,-46.49,0,*6B
1513476320.2,48460,6.69,72388.5,-16.09,-46.49,-46.27,0,*68
1513476321.46,48461,6.69,72388.5,-16.05,-46.41,-46.21,0,*6B
1513476322.71,48462,6.69,72384.0,-16.07,-46.55,-46.27,0,*69
1513476323.93,48463,6.69,72388.8,-16.07,-46.55,-46.35,0,*6B
1513476325.17,48464,6.69,72390.5,-16.07,-46.75,-46.49,0,*65
1513476326.39,48465,6.69,72388.8,-16.07,-46.55,-46.55,0,*6B
1513476327.67,48466,6.69,72392.8,-16.07,-46.27,-46.15,0,*69
1513476328.95,48467,6.69,72388.8,-16.07,-46.27,-46.15,0,*68
1513476330.2,48468,6.69,72386.3,-16.07,-46.35,-46.15,0,*64
1513476331.48,48469,6.69,72390.3,-16.07,-46.15,-46.15,0,*67
1513476332.72,48470,6.69,72388.3,-16.07,-46.49,-46.35,0,*64
1513476333.97,48471,6.69,72392.8,-16.07,-46.61,-46.55,0,*69
1513476335.19,48472,6.69,72394.5,-16.07,-46.83,-46.55,0,*66
1513476336.43,48473,6.69,72390.3,-16.07,-46.83,-46.61,0,*60
1513476337.68,48474,6.69,72390.0,-16.07,-46.55,-46.27,0,*6E
1513476338.96,48475,6.69,72394.3,-16.07,-46.27,-46.15,0,*6B
1513476340.21,48476,6.69,72384.0,-16.07,-46.35,-46.15,0,*6B
1513476341.51,48477,6.69,72390.0,-16.09,-46.15,-46.15,0,*66
1513476342.78,48478,6.69,72388.3,-16.07,-46.07,-46.15,0,*64
1513476344.08,48479,6.69,72390.3,-16.09,-46.49,-46.27,0,*60
1513476345.38,48480,6.69,72388.3,-16.09,-46.27,-46.07,0,*6C
1513476346.64,48481,6.69,72386.8,-16.07,-45.73,-45.73,0,*61
1513476347.9,48482,6.69,72388.0,-16.07,-45.73,-45.73,0,*62
1513476349.13,48483,6.69,72388.3,-16.07,-45.87,-45.73,0,*68
1513476350.39,48484,6.69,72388.5,-16.07,-45.73,-45.73,0,*64
1513476351.64,48485,6.69,72390.8,-16.05,-46.01,-46.01,0,*67
1513476352.89,48486,6.69,72388.5,-16.05,-46.01,-46.01,0,*64
1513476354.15,48487,6.69,72392.8,-16.05,-45.87,-45.81,0,*63
1513476355.39,48488,6.69,72388.3,-16.05,-46.01,-45.87,0,*67
1513476356.68,48489,6.69,72390.3,-16.01,-46.41,-46.27,0,*6F
1513476357.95,48490,6.69,72388.0,-16.05,-46.07,-46.01,0,*65
1513476359.21,48491,6.69,72390.8,-16.05,-45.81,-45.61,0,*6C
1513476360.47,48492,6.69,72390.3,-16.05,-45.87,-45.81,0,*67
1513476361.74,48493,6.69,72390.0,-16.05,-46.01,-46.07,0,*66
1513476363.01,48494,6.69,72388.0,-16.05,-46.21,-46.07,0,*63
1513476364.27,48495,6.69,72388.5,-16.05,-46.21,-46.07,0,*62
1513476365.57,48496,6.69,72390.0,-16.05,-46.49,-46.27,0,*6D
1513476366.86,48497,6.69,72390.8,-16.05,-46.49,-46.41,0,*6C
1513476368.1,48498,6.69,72388.3,-16.05,-46.01,-46.01,0,*6B
1513476369.37,48499,6.69,72390.0,-16.05,-46.07,-45.87,0,*61
1513476370.63,48500,6.69,72392.3,-16.05,-46.07,-45.87,0,*60
1513476371.93,48501,6.69,72388.0,-16.05,-46.27,-46.07,0,*68
1513476373.16,48502,6.69,72388.8,-16.05,-45.87,-45.87,0,*69
1513476374.46,48503,6.69,72388.3,-16.05,-46.07,-46.07,0,*68
1513476375.7,48504,6.69,72390.8,-16.05,-46.01,-45.87,0,*62
1513476376.96,48505,6.69,72386.0,-16.05,-45.61,-45.47,0,*6A
1513476378.19,48506,6.69,72388.8,-16.05,-45.61,-45.41,0,*6F
1513476379.43,48507,6.69,72388.0,-16.05,-45.61,-45.61,0,*6C
1513476380.64,48508,6.69,72388.8,-15.99,-45.41,-44.99,0,*61
1513476381.88,48509,6.69,72388.0,-16.01,-45.41,-45.21,0,*60
1513476383.09,48510,6.69,72388.8,-15.99,-45.41,-45.33,0,*69
1513476384.32,48511,6.69,72384.3,-15.99,-45.53,-45.21,0,*68
1513476385.54,48512,6.69,72388.8,-15.99,-45.61,-45.53,0,*6F
1513476386.78,48513,6.69,72388.0,-15.99,-45.81,-45.61,0,*61
1513476388.02,48514,6.69,72388.3,-15.97,-45.61,-45.53,0,*67
1513476389.26,48515,6.69,72388.0,-15.99,-45.61,-45.73,0,*6A
1513476390.5,48516,6.69,72390.0,-15.97,-45.61,-45.53,0,*65
1513476391.76,48517,6.69,72388.3,-15.97,-45.73,-45.61,0,*66
1513476392.98,48518,6.69,72386.3,-15.99,-45.61,-45.41,0,*66
1513476394.22,48519,6.69,72390.8,-15.99,-45.73,-45.61,0,*66
1513476395.48,48520,6.69,72384.0,-15.99,-45.81,-45.73,0,*62
1513476396.76,48521,6.69,72386.0,-15.97,-45.81,-45.73,0,*6D
1513476397.99,48522,6.75,72392.5,-15.99,-45.81,-45.95,0,*68
1513476399.24,48523,6.69,72390.3,-15.97,-45.61,-45.53,0,*63
1513476400.52,48524,6.69,72386.8,-15.97,-45.81,-45.73,0,*68
1513476401.8,48525,6.69,72390.8,-15.97,-46.15,-46.01,0,*61
1513476403.05,48526,6.69,72388.8,-15.97,-46.01,-46.01,0,*67
1513476404.29,48527,6.69,72392.0,-15.95,-45.87,-45.73,0,*6F
1513476405.57,48528,6.69,72388.3,-15.97,-45.73,-45.73,0,*69
1513476406.81,48529,6.69,72390.0,-15.97,-45.61,-45.61,0,*68
1513476408.07,48530,6.69,72388.0,-15.97,-45.81,-45.61,0,*6E
1513476409.3,48531,6.69,72386.8,-15.95,-45.73,-45.67,0,*66
1513476410.54,48532,6.69,72386.5,-15.95,-45.87,-45.73,0,*6B
1513476411.75,48533,6.69,72390.5,-15.95,-45.95,-45.67,0,*6C
1513476413.0,48534,6.69,72390.0,-15.95,-45.53,-45.47,0,*63
1513476414.26,48535,6.69,72390.3,-15.95,-45.47,-45.27,0,*61
1513476415.49,48536,6.69,72388.5,-15.95,-45.73,-45.67,0,*61
1513476416.73,48537,6.69,72388.3,-15.95,-45.95,-45.73,0,*6D
1513476417.98,48538,6.69,72390.8,-15.95,-46.07,-45.95,0,*62
1513476419.24,48539,6.69,72388.0,-15.93,-45.53,-45.47,0,*68
1513476420.51,48540,6.69,72388.3,-15.93,-46.07,-45.95,0,*6B
1513476421.77,48541,6.69,72390.8,-15.95,-45.73,-45.73,0,*64
1513476423.0,48542,6.69,72384.8,-15.95,-45.73,-45.67,0,*62
1513476424.27,48543,6.69,72390.3,-15.93,-45.95,-45.73,0,*68
1513476425.52,48544,6.69,72388.8,-15.95,-46.15,-45.95,0,*6A
1513476426.78,48545,6.69,72388.0,-15.93,-45.47,-45.33,0,*65
1513476428.07,48546,6.69,72388.5,-15.93,-45.47,-45.27,0,*63
1513476429.33,48547,6.69,72390.8,-15.93,-45.33,-45.27,0,*61
1513476430.57,48548,6.69,72384.0,-15.91,-45.67,-45.47,0,*6B
1513476431.78,48549,6.69,72388.0,-15.91,-45.41,-45.41,0,*68
1513476432.99,48550,6.69,72388.5,-15.91,-45.41,-45.41,0,*60
1513476434.26,48551,6.69,72390.3,-15.91,-45.47,-45.27,0,*67
1513476435.51,48552,6.69,72386.8,-15.89,-45.41,-45.07,0,*69
1513476436.78,48553,6.69,72388.3,-15.91,-45.47,-45.27,0,*65
1513476437.99,48554,6.69,72386.8,-15.91,-45.41,-45.21,0,*62
1513476439.25,48555,6.69,72388.3,-15.89,-45.47,-45.41,0,*6A
1513476440.5,48556,6.69,72384.3,-15.91,-45.47,-45.21,0,*66
1513476441.73,48557,6.69,72384.8,-15.89,-45.41,-45.21,0,*68
1513476442.97,48558,6.69,72386.8,-15.85,-45.41,-45.21,0,*6B
1513476444.22,48559,6.69,72388.3,-15.85,-45.41,-45.21,0,*6A
1513476445.46,48560,6.69,72390.5,-15.85,-45.33,-45.21,0,*65
1513476446.7,48561,6.69,72390.3,-15.85,-45.33,-45.21,0,*64
1513476447.93,48562,6.69,72388.8,-15.85,-45.33,-45.13,0,*66
1513476449.18,48563,6.69,72386.0,-15.85,-45.53,-45.21,0,*60
1513476450.41,48564,6.69,72386.0,-15.85,-45.41,-45.13,0,*65
1513476451.66,48565,6.69,72384.0,-15.85,-45.21,-44.99,0,*61
1513476452.87,48566,6.69,72386.5,-15.83,-45.41,-45.33,0,*63
1513476454.08,48567,6.69,72388.0,-15.83,-45.61,-45.41,0,*65
1513476455.32,48568,6.69,72388.8,-15.85,-45.33,-45.21,0,*6D
1513476456.58,48569,6.69,72386.0,-15.81,-45.33,-45.27,0,*6E
1513476457.85,48570,6.69,72384.5,-15.81,-45.47,-45.33,0,*60
1513476459.11,48571,6.69,72386.5,-15.81,-45.47,-45.33,0,*61
1513476460.4,48572,6.69,72388.8,-15.81,-45.47,-45.47,0,*61
1513476461.62,48573,6.69,72390.3,-15.83,-45.53,-45.33,0,*64
1513476462.85,48574,6.69,72386.5,-15.83,-45.95,-45.73,0,*6D
1513476464.09,48575,6.69,72384.3,-15.81,-45.87,-45.67,0,*68
1513476465.32,48576,6.69,72388.3,-15.83,-45.73,-45.53,0,*65
1513476466.54,48577,6.69,72388.0,-15.83,-45.61,-45.61,0,*66
1513476467.8,48578,6.69,72390.0,-15.81,-45.73,-45.53,0,*69
1513476469.04,48579,6.69,72392.5,-15.81,-45.87,-45.67,0,*64
1513476470.3,48580,6.69,72388.3,-15.81,-45.67,-45.47,0,*6E
1513476471.54,48581,6.69,72390.5,-15.81,-45.67,-45.67,0,*6D
1513476472.8,48582,6.69,72388.8,-15.81,-45.87,-45.47,0,*62
1513476474.04,48583,6.69,72384.0,-15.81,-45.53,-45.33,0,*69
1513476475.28,48584,6.69,72384.3,-15.81,-45.67,-45.41,0,*6C
1513476476.54,48585,6.69,72388.8,-15.81,-45.73,-45.53,0,*6B
1513476477.8,48586,6.69,72386.0,-15.81,-45.87,-45.73,0,*61
1513476479.06,48587,6.69,72390.0,-15.81,-45.67,-45.47,0,*69
1513476480.32,48588,6.69,72390.5,-15.81,-45.87,-45.73,0,*6F
1513476481.62,48589,6.69,72384.5,-15.77,-46.07,-45.81,0,*61
1513476482.88,48590,6.69,72384.5,-15.81,-46.07,-45.87,0,*66
1513476484.14,48591,6.69,72386.3,-15.81,-45.73,-45.67,0,*69
1513476485.41,48592,6.69,72388.0,-15.77,-46.07,-45.87,0,*6D
1513476486.68,48593,6.69,72388.0,-15.77,-46.07,-45.87,0,*6C
1513476487.94,48594,6.69,72388.3,-15.81,-45.67,-45.47,0,*6B
1513476489.2,48595,6.69,72390.0,-15.81,-45.95,-45.73,0,*60
1513476490.46,48596,6.69,72390.3,-15.81,-45.73,-45.67,0,*6E
1513476491.72,48597,6.69,72388.0,-15.77,-45.81,-45.61,0,*6D
1513476492.96,48598,6.69,72388.5,-15.77,-45.61,-45.41,0,*6E
1513476494.22,48599,6.69,72384.0,-15.77,-45.81,-45.61,0,*63
1513476495.49,48600,6.69,72386.5,-15.81,-45.67,-45.47,0,*65
1513476496.73,48601,6.69,72390.3,-15.81,-45.67,-45.53,0,*61
1513476497.99,48602,6.69,72388.5,-15.77,-45.67,-45.47,0,*6E
1513476499.23,48603,6.69,72388.0,-15.77,-45.67,-45.61,0,*6B
1513476500.47,48604,6.69,72386.8,-15.77,-45.87,-45.61,0,*62
1513476501.73,48605,6.69,72390.0,-15.81,-45.67,-45.47,0,*60
1513476502.97,48606,6.69,72388.3,-15.81,-45.67,-45.41,0,*65
1513476504.24,48607,6.69,72390.8,-15.77,-45.61,-45.47,0,*6D